BREEZE-M DEB

基本信息
目录编号:
38650
目录名称:
BREEZE-M DEB
国际标识:
2008-011CZ
轨道中心:
EARTH
物体状态:
在轨
发射日期:
2008-03-14 UTC
轨道信息
数据来源: 国际轨道数据
星历时间: 2026-07-11T21:41:57+0800
半长轴: 20008.498km
偏心率: 0.6371466
轨道倾角: 49.292°
近地点辐角: 213.207°
升交点赤经: 21.058°
平近点角: 47.193°
近地点: 882.014km
远地点: 26378.708km
周期: 469.441分钟
每日圈数: 3.067475
详细信息
发射场:
TTMTR
轨道高度:
LEO
数据来源:
AOE Integration Group
参考系:
TEME
时间系统:
UTC
历元类型:
SGP4
2D轨道图
3D轨道图
轨道高度分析图
轨道倾角分析图
轨道综合分析图
查看轨道综合分析图